This is the latest recevied weather packets stored in our database for station/object DB2AG-13. If no packets are shown the sender has not sent any weather packets the latest 10 day(s).
| Time | Temp. | Humidity | Pressure | Rain* | Wind** | Luminosity | Snow |
|---|---|---|---|---|---|---|---|
| 1787431924 | 13.33° C | 62% | 1021.9 hPa | - | - | - | - |
| 1787431379 | 13.33° C | 62% | 1021.8 hPa | - | - | - | - |
| 1787430292 | 13.89° C | 60% | 1021.6 hPa | - | - | - | - |
| 1787428659 | 13.89° C | 58% | 1021.4 hPa | - | - | - | - |
| 1787428117 | 14.44° C | 58% | 1021.4 hPa | - | - | - | - |
| 1787427577 | 14.44° C | 58% | 1021.3 hPa | - | - | - | - |
| 1787427034 | 14.44° C | 58% | 1021.2 hPa | - | - | - | - |
| 1787425950 | 14.44° C | 57% | 1021.1 hPa | - | - | - | - |
| 1787424865 | 15° C | 55% | 1020.8 hPa | - | - | - | - |
| 1787424319 | 15° C | 55% | 1020.6 hPa | - | - | - | - |
| 1787423771 | 15.56° C | 54% | 1020.5 hPa | - | - | - | - |
| 1787423228 | 15.56° C | 54% | 1020.4 hPa | - | - | - | - |
| 1787422679 | 16.11° C | 53% | 1020.2 hPa | - | - | - | - |
| 1787422131 | 16.67° C | 53% | 1020.1 hPa | - | - | - | - |
| 1787421588 | 16.67° C | 52% | 1020.1 hPa | - | - | - | - |
| 1787421048 | 16.67° C | 52% | 1020 hPa | - | - | - | - |
| 1787419961 | 17.78° C | 50% | 1019.8 hPa | - | - | - | - |
| 1787419415 | 17.78° C | 49% | 1019.7 hPa | - | - | - | - |
| 1787418871 | 18.33° C | 48% | 1019.6 hPa | - | - | - | - |
| 1787418332 | 18.89° C | 47% | 1019.5 hPa | - | - | - | - |
| 1787417788 | 18.89° C | 47% | 1019.5 hPa | - | - | - | - |
| 1787417250 | 18.89° C | 48% | 1019.5 hPa | - | - | - | - |
| 1787416708 | 18.33° C | 48% | 1019.4 hPa | - | - | - | - |
| 1787416166 | 18.33° C | 47% | 1019.3 hPa | - | - | - | - |
| 1787415630 | 18.33° C | 46% | 1019.4 hPa | - | - | - | - |
* Rain since midnight (hover to see other rain measurements)
** Current wind speed in m/s (hover to see current wind gust speed)